| time (UTC) | temp F | wind direction | speed knots | gust knots | rain 1hr in | rain 24hr in | rain mn in | humidity % | barometer mb |
| 20260505200609 | 57 | 339 | 0.9 | 0.9 | 0.00 | 0.38 | 0.38 | 99 | 1003.9 |
| 20260505200105 | 57 | 329 | 0.9 | 0.9 | 0.00 | 0.38 | 0.38 | 99 | 1003.9 |
| 20260505195556 | 57 | 336 | 1.7 | 1.7 | 0.00 | 0.38 | 0.38 | 99 | 1003.7 |
| 20260505195054 | 57 | 306 | 0.9 | 1.7 | 0.00 | 0.38 | 0.38 | 99 | 1003.8 |
| 20260505194550 | 56 | 322 | 2.6 | 2.6 | 0.00 | 0.38 | 0.38 | 99 | 1003.9 |
| 20260505194046 | 56 | 308 | 0.0 | 0.9 | 0.00 | 0.38 | 0.38 | 99 | 1003.8 |
| 20260505193543 | 56 | 308 | 0.9 | 0.9 | 0.00 | 0.38 | 0.38 | 99 | 1003.7 |
| 20260505193040 | 56 | 291 | 0.9 | 0.9 | 0.00 | 0.38 | 0.38 | 99 | 1003.5 |
| 20260505192538 | 56 | 264 | 2.6 | 4.3 | 0.00 | 0.38 | 0.38 | 99 | 1003.7 |
| 20260505192036 | 56 | 275 | 2.6 | 2.6 | 1.16 | 0.38 | 0.38 | 99 | 1003.4 |
| 20260505191534 | 55 | 255 | 3.5 | 4.3 | 1.68 | 0.38 | 0.38 | 99 | 1003.6 |
| 20260505191031 | 56 | 231 | 5.2 | 7.0 | 0.66 | 0.20 | 0.20 | 99 | 1005.3 |
| 20260505190526 | 57 | 238 | 6.1 | 7.8 | 0.07 | 0.10 | 0.10 | 98 | 1003.1 |
| 20260505190022 | 58 | 40 | 2.6 | 7.0 | 0.00 | 0.09 | 0.09 | 95 | 1002.7 |
| 20260505185514 | 60 | 319 | 11.3 | 13.9 | 0.00 | 0.09 | 0.09 | 90 | 1002.8 |
| 20260505185010 | 62 | 271 | 7.0 | 11.3 | 0.00 | 0.09 | 0.09 | 86 | 1003.1 |
| 20260505184507 | 62 | 286 | 1.7 | 1.7 | 0.00 | 0.09 | 0.09 | 83 | 1002.4 |
| 20260505184004 | 62 | 220 | 1.7 | 1.7 | 0.00 | 0.09 | 0.09 | 83 | 1002.4 |
| 20260505183501 | 62 | 304 | 2.6 | 2.6 | 0.00 | 0.09 | 0.09 | 84 | 1002.3 |
| 20260505182957 | 62 | 300 | 0.9 | 1.7 | 0.00 | 0.09 | 0.09 | 84 | 1002.6 |
| 20260505182454 | 62 | 337 | 0.0 | 0.0 | 0.00 | 0.09 | 0.09 | 87 | 1002.5 |
| 20260505181950 | 60 | 36 | 1.7 | 1.7 | 0.00 | 0.09 | 0.09 | 91 | 1002.6 |
| 20260505181448 | 61 | 336 | 0.9 | 0.9 | 0.00 | 0.09 | 0.09 | 92 | 1002.6 |
| 20260505180944 | 62 | 347 | 0.9 | 0.9 | 0.00 | 0.09 | 0.09 | 88 | 1002.7 |
| 20260505180435 | 62 | 343 | 0.0 | 0.0 | 0.00 | 0.09 | 0.09 | 86 | 1002.8 |
| 20260505175932 | 62 | 25 | 0.9 | 0.9 | 0.00 | 0.09 | 0.09 | 85 | 1002.9 |
| 20260505175428 | 62 | 301 | 0.9 | 0.9 | 0.00 | 0.09 | 0.09 | 90 | 1002.7 |
| 20260505174924 | 61 | 80 | 1.7 | 1.7 | 0.00 | 0.09 | 0.09 | 89 | 1003.1 |
| 20260505174422 | 61 | 20 | 0.9 | 0.9 | 0.00 | 0.09 | 0.09 | 93 | 1003.5 |
| 20260505173918 | 60 | 359 | 0.0 | 0.9 | 0.00 | 0.09 | 0.09 | 92 | 1003.6 |
| 20260505173414 | 61 | 4 | 0.9 | 0.9 | 0.00 | 0.09 | 0.09 | 92 | 1003.5 |
| 20260505172912 | 61 | 346 | 0.0 | 0.0 | 0.00 | 0.09 | 0.09 | 90 | 1003.7 |
| 20260505172410 | 60 | 342 | 0.0 | 0.0 | 0.00 | 0.09 | 0.09 | 92 | 1003.9 |
| 20260505171909 | 60 | 2 | 0.0 | 0.9 | 0.00 | 0.09 | 0.09 | 95 | 1003.9 |
| 20260505171406 | 59 | 331 | 0.0 | 0.9 | 0.00 | 0.09 | 0.09 | 94 | 1004.2 |
| 20260505170903 | 59 | 334 | 0.0 | 0.0 | 0.00 | 0.09 | 0.09 | 93 | 1004.0 |
| 20260505170400 | 59 | 333 | 0.0 | 0.0 | 0.00 | 0.09 | 0.09 | 95 | 1004.5 |
| 20260505165855 | 59 | 329 | 1.7 | 1.7 | 0.00 | 0.09 | 0.09 | 94 | 1004.5 |
| 20260505165350 | 59 | 291 | 0.0 | 0.9 | 0.00 | 0.09 | 0.09 | 94 | 1004.7 |
| 20260505164846 | 58 | 263 | 0.9 | 1.7 | 0.00 | 0.09 | 0.09 | 93 | 1004.5 |
| 20260505164343 | 58 | 259 | 2.6 | 2.6 | 0.00 | 0.09 | 0.09 | 93 | 1004.7 |
| 20260505163842 | 58 | 287 | 4.3 | 6.1 | 0.00 | 0.09 | 0.09 | 94 | 1004.9 |
| 20260505163340 | 58 | 351 | 2.6 | 2.6 | 0.00 | 0.09 | 0.09 | 95 | 1004.9 |
| 20260505162838 | 59 | 260 | 4.3 | 6.1 | 0.00 | 0.09 | 0.09 | 96 | 1005.0 |
| 20260505162334 | 58 | 297 | 4.3 | 7.0 | 0.00 | 0.09 | 0.09 | 97 | 1005.3 |
| 20260505161831 | 58 | 308 | 0.9 | 1.7 | 0.00 | 0.09 | 0.09 | 99 | 1005.4 |
| 20260505161328 | 57 | 87 | 1.7 | 2.6 | 0.00 | 0.09 | 0.09 | 99 | 1005.5 |
| 20260505160825 | 56 | 303 | 0.9 | 1.7 | 0.00 | 0.09 | 0.09 | 99 | 1005.7 |
| 20260505160324 | 55 | 338 | 0.9 | 1.7 | 0.00 | 0.09 | 0.09 | 99 | 1005.8 |
| 20260505153302 | 53 | 291 | 1.7 | 1.7 | 0.05 | 0.08 | 0.08 | 99 | 1006.1 |
| 20260505152759 | 53 | 338 | 1.7 | 1.7 | 0.12 | 0.08 | 0.08 | 99 | 1006.7 |
| 20260505152255 | 53 | 287 | 2.6 | 4.3 | 0.19 | 0.07 | 0.07 | 99 | 1006.8 |
| 20260505151750 | 53 | 260 | 6.1 | 7.0 | 0.17 | 0.06 | 0.06 | 97 | 1006.6 |
| 20260505151248 | 54 | 336 | 7.8 | 8.7 | 0.17 | 0.04 | 0.04 | 96 | 1006.3 |
| 20260505150744 | 55 | 283 | 7.0 | 8.7 | 0.19 | 0.03 | 0.03 | 92 | 1006.6 |
| 20260505150241 | 57 | 263 | 5.2 | 11.3 | 0.07 | 0.01 | 0.01 | 86 | 1006.6 |
| 20260505140206 | 63 | 260 | 4.3 | 5.2 | 0.00 | 0.00 | 0.00 | 68 | 1005.5 |
| 20260505130130 | 58 | 298 | 3.5 | 5.2 | 0.00 | 0.00 | 0.00 | 80 | 1005.6 |
| 20260505124619 | 57 | 318 | 1.7 | 1.7 | 0.00 | 0.00 | 0.00 | 80 | 1005.8 |
| 20260505124116 | 56 | 252 | 0.9 | 0.9 | 0.00 | 0.00 | 0.00 | 83 | 1005.7 |
| 20260505123612 | 56 | 302 | 2.6 | 2.6 | 0.00 | 0.00 | 0.00 | 83 | 1005.8 |
| 20260505123109 | 55 | 154 | 0.0 | 1.7 | 0.00 | 0.00 | 0.00 | 83 | 1005.7 |
| 20260505122605 | 55 | 329 | 1.7 | 1.7 | 0.00 | 0.00 | 0.00 | 85 | 1005.9 |
| 20260505122103 | 55 | 4 | 0.0 | 0.9 | 0.00 | 0.00 | 0.00 | 85 | 1005.8 |
| 20260505121559 | 54 | 53 | 0.9 | 0.9 | 0.00 | 0.00 | 0.00 | 86 | 1005.6 |
| 20260505121056 | 54 | 294 | 2.6 | 2.6 | 0.00 | 0.00 | 0.00 | 85 | 1005.9 |
| 20260505120552 | 53 | 309 | 1.7 | 1.7 | 0.00 | 0.00 | 0.00 | 88 | 1006.0 |
| 20260505120048 | 51 | 300 | 0.0 | 0.9 | 0.00 | 0.00 | 0.00 | 89 | 1006.1 |
| 20260505115542 | 51 | 6 | 1.7 | 1.7 | 0.00 | 0.00 | 0.00 | 92 | 1006.1 |
| 20260505115040 | 50 | 329 | 0.9 | 0.9 | 0.00 | 0.00 | 0.00 | 96 | 1006.1 |
| 20260505114537 | 48 | 350 | 1.7 | 1.7 | 0.00 | 0.00 | 0.00 | 99 | 1005.9 |
| 20260505114033 | 47 | 342 | 0.0 | 0.9 | 0.00 | 0.00 | 0.00 | 99 | 1006.0 |
| 20260505113530 | 47 | 345 | 0.0 | 0.0 | 0.00 | 0.00 | 0.00 | 99 | 1006.0 |
| 20260505113026 | 46 | 17 | 0.0 | 0.0 | 0.00 | 0.00 | 0.00 | 99 | 1005.9 |
| 20260505112522 | 45 | 344 | 0.9 | 0.9 | 0.00 | 0.00 | 0.00 | 99 | 1006.3 |
| 20260505112020 | 44 | 316 | 0.9 | 0.9 | 0.00 | 0.00 | 0.00 | 99 | 1006.1 |
| 20260505111514 | 43 | 326 | 0.9 | 1.7 | 0.00 | 0.00 | 0.00 | 99 | 1006.3 |
| 20260505111011 | 42 | 345 | 0.9 | 0.9 | 0.00 | 0.00 | 0.00 | 99 | 1006.2 |
| 20260505110507 | 40 | 3 | 0.0 | 0.9 | 0.00 | 0.00 | 0.00 | 99 | 1006.5 |
| 20260505101939 | 35 | 340 | 0.9 | 0.9 | 0.00 | 0.00 | 0.00 | 99 | 1006.7 |
| 20260505101432 | 35 | 332 | 0.0 | 0.9 | 0.00 | 0.00 | 0.00 | 99 | 1006.6 |
| 20260505100928 | 35 | 317 | 0.0 | 0.0 | 0.00 | 0.00 | 0.00 | 99 | 1006.7 |
| 20260505100426 | 34 | 313 | 0.9 | 1.7 | 0.00 | 0.00 | 0.00 | 99 | 1006.7 |
| 20260505095921 | 34 | 313 | 0.9 | 0.9 | 0.00 | 0.00 | 0.00 | 99 | 1006.7 |
| 20260505095419 | 34 | 343 | 0.0 | 0.0 | 0.00 | 0.00 | 0.00 | 99 | 1006.5 |
| 20260505094914 | 34 | 337 | 0.9 | 1.7 | 0.00 | 0.00 | 0.00 | 99 | 1006.5 |
| 20260505094412 | 33 | 322 | 0.0 | 0.9 | 0.00 | 0.00 | 0.00 | 99 | 1006.5 |
| 20260505093908 | 33 | 342 | 0.0 | 0.0 | 0.00 | 0.00 | 0.00 | 99 | 1006.6 |
| 20260505093405 | 33 | 305 | 0.9 | 0.9 | 0.00 | 0.00 | 0.00 | 99 | 1006.7 |
| 20260505092902 | 32 | 329 | 0.9 | 0.9 | 0.00 | 0.00 | 0.00 | 99 | 1006.8 |
| 20260505092400 | 32 | 320 | 0.9 | 0.9 | 0.00 | 0.00 | 0.00 | 99 | 1006.5 |
| 20260505091857 | 31 | 325 | 0.9 | 0.9 | 0.00 | 0.00 | 0.00 | 99 | 1006.6 |
| 20260505091355 | 31 | 329 | 0.9 | 0.9 | 0.00 | 0.00 | 0.00 | 99 | 1006.7 |
| 20260505090852 | 32 | 309 | 1.7 | 1.7 | 0.00 | 0.00 | 0.00 | 99 | 1006.5 |
| 20260505090351 | 32 | 325 | 0.9 | 0.9 | 0.00 | 0.00 | 0.00 | 99 | 1006.2 |
| 20260505085848 | 32 | 315 | 0.9 | 0.9 | 0.00 | 0.00 | 0.00 | 99 | 1006.6 |
| 20260505085345 | 32 | 334 | 0.0 | 0.0 | 0.00 | 0.00 | 0.00 | 99 | 1006.6 |
| 20260505084843 | 32 | 329 | 0.9 | 0.9 | 0.00 | 0.00 | 0.00 | 99 | 1006.5 |
| 20260505084341 | 31 | 352 | 0.9 | 0.9 | 0.00 | 0.00 | 0.00 | 99 | 1006.6 |
| 20260505083838 | 31 | 336 | 0.0 | 0.0 | 0.00 | 0.00 | 0.00 | 99 | 1006.5 |
| 20260505083336 | 32 | 330 | 0.0 | 0.0 | 0.00 | 0.00 | 0.00 | 99 | 1006.7 |
| 20260505082832 | 32 | 346 | 0.9 | 0.9 | 0.00 | 0.00 | 0.00 | 99 | 1006.8 |
| 20260505082328 | 32 | 315 | 0.0 | 0.9 | 0.00 | 0.00 | 0.00 | 99 | 1006.8 |
| 20260505081825 | 32 | 342 | 0.0 | 0.0 | 0.00 | 0.00 | 0.00 | 99 | 1006.7 |
| 20260505081322 | 32 | 346 | 0.9 | 0.9 | 0.00 | 0.00 | 0.00 | 99 | 1006.9 |
| 20260505080819 | 31 | 336 | 0.0 | 0.0 | 0.00 | 0.00 | 0.00 | 99 | 1006.8 |
| 20260505080314 | 31 | 335 | 0.0 | 0.0 | 0.00 | 0.00 | 0.00 | 99 | 1006.8 |
| 20260505075810 | 31 | 341 | 0.9 | 0.9 | 0.00 | 0.00 | 0.00 | 99 | 1007.0 |
| 20260505075307 | 32 | 327 | 0.0 | 0.9 | 0.00 | 0.00 | 0.00 | 99 | 1007.1 |
| 20260505074804 | 32 | 336 | 0.0 | 0.0 | 0.00 | 0.00 | 0.00 | 99 | 1006.9 |
| 20260505074302 | 33 | 336 | 0.9 | 0.9 | 0.00 | 0.00 | 0.00 | 99 | 1007.0 |
| 20260505073759 | 32 | 359 | 1.7 | 1.7 | 0.00 | 0.00 | 0.00 | 99 | 1007.0 |
| 20260505073257 | 33 | 340 | 0.9 | 1.7 | 0.00 | 0.00 | 0.00 | 99 | 1007.0 |
| 20260505072753 | 32 | 347 | 1.7 | 1.7 | 0.00 | 0.00 | 0.00 | 99 | 1006.8 |
| 20260505072250 | 32 | 329 | 1.7 | 1.7 | 0.00 | 0.00 | 0.00 | 99 | 1006.9 |
| 20260505071745 | 32 | 332 | 0.0 | 0.0 | 0.00 | 0.00 | 0.00 | 99 | 1006.9 |
| 20260505071242 | 32 | 0 | 1.7 | 1.7 | 0.00 | 0.00 | 0.00 | 99 | 1006.7 |
| 20260505070740 | 32 | 342 | 0.9 | 0.9 | 0.00 | 0.00 | 0.00 | 99 | 1006.9 |
| 20260505070236 | 32 | 353 | 0.9 | 0.9 | 0.00 | 0.00 | 0.00 | 99 | 1007.2 |
| 20260505065732 | 32 | 342 | 0.0 | 0.0 | 0.00 | 0.00 | 0.00 | 99 | 1007.0 |
| 20260505065229 | 33 | 324 | 1.7 | 1.7 | 0.00 | 0.00 | 0.00 | 99 | 1006.9 |
| 20260505064726 | 33 | 341 | 0.0 | 0.0 | 0.00 | 0.00 | 0.00 | 99 | 1006.8 |
| 20260505064223 | 32 | 346 | 0.0 | 0.0 | 0.00 | 0.00 | 0.00 | 99 | 1007.0 |
| 20260505063721 | 32 | 350 | 0.9 | 1.7 | 0.00 | 0.00 | 0.00 | 99 | 1007.1 |
| 20260505063217 | 33 | 321 | 0.9 | 0.9 | 0.00 | 0.00 | 0.00 | 99 | 1007.1 |
| 20260505062713 | 33 | 345 | 0.0 | 0.9 | 0.00 | 0.00 | 0.00 | 99 | 1007.1 |
| 20260505062211 | 33 | 347 | 0.0 | 0.9 | 0.00 | 0.00 | 0.00 | 99 | 1007.4 |
| 20260505061708 | 33 | 336 | 0.0 | 0.9 | 0.00 | 0.00 | 0.00 | 99 | 1007.4 |
| 20260505061206 | 33 | 328 | 0.9 | 0.9 | 0.00 | 0.00 | 0.00 | 99 | 1007.4 |
| 20260505060703 | 33 | 338 | 0.0 | 0.0 | 0.00 | 0.00 | 0.00 | 99 | 1007.3 |
| 20260505060200 | 33 | 340 | 0.0 | 0.0 | 0.00 | 0.00 | 0.00 | 99 | 1007.4 |
| 20260505055655 | 34 | 343 | 0.0 | 0.0 | 0.00 | 0.00 | 0.00 | 99 | 1007.2 |
| 20260505055152 | 34 | 329 | 0.9 | 0.9 | 0.00 | 0.00 | 0.00 | 99 | 1007.5 |
| 20260505054649 | 35 | 344 | 0.0 | 0.0 | 0.00 | 0.00 | 0.00 | 99 | 1007.5 |
| 20260505054147 | 35 | 338 | 0.0 | 0.0 | 0.00 | 0.00 | 0.00 | 99 | 1007.7 |
| 20260505053645 | 34 | 340 | 0.0 | 0.0 | 0.00 | 0.00 | 0.00 | 99 | 1007.6 |
| 20260505053141 | 33 | 340 | 0.0 | 0.0 | 0.00 | 0.00 | 0.00 | 99 | 1007.7 |
| 20260505052638 | 33 | 325 | 0.9 | 0.9 | 0.00 | 0.00 | 0.00 | 99 | 1007.5 |
| 20260505052135 | 33 | 333 | 0.0 | 0.9 | 0.00 | 0.00 | 0.00 | 99 | 1007.5 |
| 20260505051632 | 34 | 327 | 0.9 | 0.9 | 0.00 | 0.00 | 0.00 | 99 | 1007.8 |
| 20260505051130 | 33 | 339 | 0.0 | 0.0 | 0.00 | 0.00 | 0.00 | 99 | 1007.8 |
| 20260505050628 | 33 | 334 | 0.9 | 0.9 | 0.00 | 0.00 | 0.00 | 99 | 1007.8 |
| 20260505050126 | 33 | 333 | 0.0 | 0.0 | 0.00 | 0.00 | 0.00 | 99 | 1007.9 |
| 20260505041555 | 33 | 324 | 1.7 | 1.7 | 0.00 | 0.00 | 0.00 | 99 | 1008.0 |
| 20260505041053 | 34 | 329 | 0.9 | 0.9 | 0.00 | 0.00 | 0.00 | 99 | 1008.2 |
| 20260505040550 | 34 | 330 | 0.9 | 0.9 | 0.00 | 0.00 | 0.00 | 99 | 1008.2 |
| 20260505040047 | 34 | 325 | 0.0 | 0.9 | 0.00 | 0.14 | 0.14 | 99 | 1008.2 |
| 20260505035543 | 34 | 321 | 1.7 | 1.7 | 0.00 | 0.14 | 0.14 | 99 | 1008.2 |
| 20260505035040 | 34 | 343 | 0.0 | 0.0 | 0.00 | 0.14 | 0.14 | 99 | 1008.0 |
| 20260505034536 | 35 | 332 | 0.0 | 0.0 | 0.00 | 0.14 | 0.14 | 99 | 1008.0 |
| 20260505034033 | 34 | 334 | 0.9 | 0.9 | 0.00 | 0.14 | 0.14 | 99 | 1008.3 |
| 20260505033530 | 35 | 336 | 0.0 | 0.0 | 0.00 | 0.14 | 0.14 | 99 | 1008.1 |
| 20260505033029 | 34 | 315 | 1.7 | 1.7 | 0.00 | 0.14 | 0.14 | 99 | 1008.3 |
| 20260505032526 | 35 | 328 | 0.9 | 0.9 | 0.00 | 0.14 | 0.14 | 99 | 1008.0 |
| 20260505032022 | 34 | 346 | 0.0 | 0.0 | 0.00 | 0.14 | 0.14 | 99 | 1008.0 |
| 20260505031520 | 34 | 332 | 0.0 | 0.0 | 0.00 | 0.14 | 0.14 | 99 | 1008.2 |
| 20260505031016 | 34 | 316 | 0.9 | 0.9 | 0.00 | 0.14 | 0.14 | 99 | 1008.4 |
| 20260505030513 | 34 | 317 | 0.0 | 0.9 | 0.00 | 0.14 | 0.14 | 99 | 1008.2 |
| 20260505030009 | 34 | 322 | 0.9 | 0.9 | 0.00 | 0.14 | 0.14 | 99 | 1008.3 |
| 20260505025505 | 34 | 332 | 0.0 | 0.0 | 0.00 | 0.14 | 0.14 | 99 | 1008.2 |
| 20260505025004 | 34 | 317 | 0.9 | 0.9 | 0.00 | 0.14 | 0.14 | 99 | 1008.3 |
| 20260505024500 | 34 | 333 | 0.0 | 0.0 | 0.00 | 0.14 | 0.14 | 99 | 1008.1 |
| 20260505023957 | 34 | 344 | 0.9 | 0.9 | 0.00 | 0.14 | 0.14 | 99 | 1008.4 |
| 20260505023454 | 33 | 332 | 0.0 | 0.0 | 0.00 | 0.14 | 0.14 | 99 | 1008.1 |
| 20260505022952 | 33 | 331 | 0.0 | 0.0 | 0.00 | 0.14 | 0.14 | 99 | 1008.1 |
| 20260505022449 | 33 | 320 | 0.9 | 0.9 | 0.00 | 0.14 | 0.14 | 99 | 1008.3 |
| 20260505021947 | 33 | 323 | 0.9 | 0.9 | 0.00 | 0.14 | 0.14 | 99 | 1008.4 |
| 20260505021443 | 33 | 314 | 1.7 | 1.7 | 0.00 | 0.14 | 0.14 | 99 | 1008.5 |
| 20260505020939 | 33 | 323 | 0.9 | 0.9 | 0.00 | 0.14 | 0.14 | 99 | 1008.5 |
| 20260505020434 | 33 | 333 | 0.9 | 0.9 | 0.00 | 0.14 | 0.14 | 99 | 1008.5 |
| 20260505015931 | 33 | 313 | 0.9 | 1.7 | 0.00 | 0.14 | 0.14 | 99 | 1008.6 |
| 20260505015428 | 33 | 302 | 0.9 | 1.7 | 0.00 | 0.14 | 0.14 | 99 | 1008.9 |
| 20260505014926 | 33 | 318 | 0.9 | 1.7 | 0.00 | 0.14 | 0.14 | 99 | 1008.5 |
| 20260505014422 | 33 | 315 | 0.9 | 0.9 | 0.00 | 0.14 | 0.14 | 99 | 1008.8 |
| 20260505013919 | 33 | 321 | 1.7 | 1.7 | 0.00 | 0.14 | 0.14 | 99 | 1008.6 |
| 20260505013416 | 34 | 325 | 1.7 | 1.7 | 0.00 | 0.14 | 0.14 | 99 | 1008.5 |
| 20260505012914 | 33 | 326 | 0.9 | 0.9 | 0.00 | 0.14 | 0.14 | 99 | 1008.5 |
| 20260505012412 | 33 | 328 | 0.9 | 0.9 | 0.00 | 0.14 | 0.14 | 99 | 1008.3 |
| 20260505011908 | 33 | 322 | 0.9 | 0.9 | 0.00 | 0.14 | 0.14 | 99 | 1008.4 |
| 20260505011405 | 33 | 318 | 0.9 | 0.9 | 0.00 | 0.14 | 0.14 | 99 | 1008.4 |
| 20260505010901 | 34 | 321 | 0.9 | 0.9 | 0.00 | 0.14 | 0.14 | 99 | 1008.4 |
| 20260505010357 | 33 | 341 | 1.7 | 2.6 | 0.00 | 0.14 | 0.14 | 99 | 1008.2 |
| 20260505005853 | 34 | 324 | 0.0 | 0.0 | 0.00 | 0.14 | 0.14 | 99 | 1008.3 |
| 20260505005350 | 35 | 324 | 0.0 | 0.0 | 0.00 | 0.14 | 0.14 | 99 | 1008.2 |
| 20260505004848 | 35 | 328 | 0.0 | 0.0 | 0.00 | 0.14 | 0.14 | 99 | 1008.1 |
| 20260505004344 | 35 | 326 | 0.0 | 0.0 | 0.00 | 0.14 | 0.14 | 99 | 1008.3 |
| 20260505003841 | 35 | 326 | 0.0 | 0.0 | 0.00 | 0.14 | 0.14 | 99 | 1008.4 |
| 20260505003338 | 36 | 329 | 0.0 | 0.0 | 0.00 | 0.14 | 0.14 | 99 | 1008.0 |
| 20260505002834 | 35 | 329 | 0.0 | 0.0 | 0.00 | 0.14 | 0.14 | 99 | 1008.0 |
| 20260505002331 | 36 | 321 | 0.9 | 0.9 | 0.00 | 0.14 | 0.14 | 99 | 1008.1 |
| 20260505001830 | 36 | 324 | 0.9 | 0.9 | 0.00 | 0.14 | 0.14 | 99 | 1008.0 |
| 20260505001326 | 37 | 321 | 0.9 | 0.9 | 0.00 | 0.14 | 0.14 | 99 | 1008.0 |
| 20260505000824 | 37 | 327 | 0.9 | 0.9 | 0.00 | 0.14 | 0.14 | 99 | 1007.8 |
| 20260505000321 | 38 | 328 | 0.9 | 0.9 | 0.00 | 0.14 | 0.14 | 99 | 1007.8 |
| 20260504235818 | 39 | 324 | 0.9 | 0.9 | 0.00 | 0.14 | 0.14 | 99 | 1007.9 |
| 20260504235315 | 39 | 329 | 0.0 | 0.0 | 0.00 | 0.14 | 0.14 | 99 | 1007.9 |
| 20260504234811 | 40 | 332 | 0.9 | 0.9 | 0.00 | 0.14 | 0.14 | 99 | 1007.7 |
| 20260504234309 | 40 | 329 | 0.0 | 0.0 | 0.00 | 0.14 | 0.14 | 99 | 1007.9 |
| 20260504233805 | 40 | 331 | 0.0 | 0.0 | 0.00 | 0.14 | 0.14 | 99 | 1007.8 |
| 20260504233301 | 41 | 333 | 0.0 | 0.9 | 0.00 | 0.14 | 0.14 | 99 | 1007.6 |
| 20260504232758 | 41 | 336 | 0.0 | 0.0 | 0.00 | 0.14 | 0.14 | 99 | 1007.8 |
| 20260504232255 | 42 | 334 | 0.0 | 0.9 | 0.00 | 0.14 | 0.14 | 99 | 1007.2 |
| 20260504231752 | 42 | 265 | 1.7 | 1.7 | 0.00 | 0.14 | 0.14 | 99 | 1007.7 |
| 20260504231248 | 43 | 315 | 0.9 | 0.9 | 0.00 | 0.14 | 0.14 | 99 | 1007.5 |
| 20260504230744 | 43 | 284 | 0.9 | 0.9 | 0.00 | 0.14 | 0.14 | 99 | 1007.3 |
| 20260504230243 | 43 | 264 | 1.7 | 1.7 | 0.00 | 0.14 | 0.14 | 99 | 1007.2 |
| 20260504225741 | 43 | 316 | 0.9 | 0.9 | 0.00 | 0.14 | 0.14 | 99 | 1007.4 |
| 20260504225237 | 43 | 263 | 1.7 | 1.7 | 0.00 | 0.14 | 0.14 | 99 | 1007.4 |
| 20260504224734 | 43 | 309 | 0.9 | 0.9 | 0.00 | 0.14 | 0.14 | 99 | 1007.2 |
| 20260504224232 | 43 | 324 | 0.9 | 0.9 | 0.00 | 0.14 | 0.14 | 99 | 1007.2 |
| 20260504223728 | 43 | 305 | 0.9 | 0.9 | 0.00 | 0.14 | 0.14 | 99 | 1007.3 |
| 20260504223223 | 43 | 307 | 1.7 | 1.7 | 0.00 | 0.14 | 0.14 | 99 | 1007.4 |
| 20260504222721 | 44 | 303 | 2.6 | 2.6 | 0.00 | 0.14 | 0.14 | 98 | 1007.2 |
| 20260504222218 | 43 | 277 | 0.9 | 1.7 | 0.00 | 0.14 | 0.14 | 99 | 1007.0 |
| 20260504221715 | 43 | 332 | 0.9 | 0.9 | 0.00 | 0.14 | 0.14 | 99 | 1007.1 |
| 20260504221212 | 43 | 294 | 1.7 | 1.7 | 0.00 | 0.14 | 0.14 | 98 | 1007.2 |
| 20260504220708 | 43 | 285 | 2.6 | 2.6 | 0.00 | 0.14 | 0.14 | 98 | 1007.1 |
| 20260504220206 | 43 | 300 | 2.6 | 4.3 | 0.00 | 0.14 | 0.14 | 98 | 1007.2 |
| 20260504215702 | 43 | 286 | 3.5 | 5.2 | 0.00 | 0.14 | 0.14 | 99 | 1007.2 |
| 20260504215200 | 44 | 273 | 2.6 | 5.2 | 0.00 | 0.14 | 0.14 | 99 | 1007.0 |
| 20260504214655 | 44 | 282 | 3.5 | 4.3 | 0.00 | 0.14 | 0.14 | 98 | 1007.2 |
| 20260504214152 | 44 | 268 | 2.6 | 4.3 | 0.00 | 0.14 | 0.14 | 98 | 1007.0 |
| 20260504213649 | 43 | 260 | 3.5 | 4.3 | 0.00 | 0.14 | 0.14 | 99 | 1007.3 |
| 20260504213145 | 43 | 317 | 1.7 | 1.7 | 0.00 | 0.14 | 0.14 | 99 | 1007.0 |
| 20260504212642 | 43 | 237 | 2.6 | 5.2 | 0.00 | 0.14 | 0.14 | 99 | 1007.1 |
| 20260504212138 | 43 | 281 | 2.6 | 2.6 | 0.00 | 0.14 | 0.14 | 99 | 1007.2 |
| 20260504211636 | 43 | 333 | 3.5 | 5.2 | 0.00 | 0.14 | 0.14 | 98 | 1006.8 |
| 20260504211132 | 43 | 331 | 1.7 | 2.6 | 0.00 | 0.14 | 0.14 | 99 | 1006.9 |
| 20260504210630 | 43 | 258 | 2.6 | 2.6 | 0.00 | 0.14 | 0.14 | 99 | 1006.9 |
| 20260504210126 | 42 | 252 | 2.6 | 6.1 | 0.00 | 0.14 | 0.14 | 99 | 1006.8 |
| 20260504205624 | 42 | 278 | 2.6 | 5.2 | 0.00 | 0.14 | 0.14 | 99 | 1007.1 |
| 20260504205121 | 42 | 265 | 1.7 | 1.7 | 0.00 | 0.14 | 0.14 | 99 | 1006.8 |
| 20260504204620 | 42 | 311 | 2.6 | 2.6 | 0.00 | 0.14 | 0.14 | 99 | 1006.9 |
| 20260504204118 | 42 | 265 | 3.5 | 5.2 | 0.00 | 0.14 | 0.14 | 99 | 1007.1 |
| 20260504203616 | 42 | 247 | 2.6 | 2.6 | 0.00 | 0.14 | 0.14 | 99 | 1006.8 |
| 20260504203114 | 42 | 288 | 1.7 | 1.7 | 0.00 | 0.14 | 0.14 | 99 | 1006.7 |
| 20260504202609 | 41 | 312 | 2.6 | 2.6 | 0.00 | 0.14 | 0.14 | 99 | 1006.8 |
| 20260504202106 | 41 | 294 | 1.7 | 1.7 | 0.00 | 0.14 | 0.14 | 99 | 1007.0 |
| 20260504201603 | 41 | 268 | 2.6 | 2.6 | 0.00 | 0.14 | 0.14 | 99 | 1006.8 |
| 20260504201101 | 41 | 284 | 3.5 | 4.3 | 0.00 | 0.14 | 0.14 | 99 | 1006.9 |